Location: Banff
(51.1667°N, 115.5667°W)
Time: 03:52:42
(UTC+00:00)

S-56A Canister/Altair - Pass Details

Date: 16 May 2021
Orbit: 632 x 2500 km, 38.9° (Epoch: 16 June)

Event Time Altitude Azimuth Distance (km) Brightness Sun altitude
Rises 03:46:58 0° 276° (W) 6,179 13.3 -3.4°
Reaches altitude 10° 03:51:42 10° 268° (W) 5,107 12.6 -4.0°
Maximum altitude 04:03:33 32° 213° (SSW) 3,216 10.6 -5.4°
Drops below altitude 10° 04:13:02 10° 156° (SSE) 4,053 10.6 -6.5°
Enters shadow 04:14:38 - 151° (SSE) 4,391 10.8 -6.7°
